ONEWEB-0689, 61597

Orbit data source: Space-Track

ONEWEB-0689, 61597 is a payload satellite owned by Eut. One Web (UK) in LEO that was launched on Sun, 20 Oct 2024 UTC via an FALCON 9 launch vehicle from the Air Force Western Test Range (AFWTR). Payload-class satellites include a variety of spacecraft equipped with specific instruments for various scientific and technological missions. These include communications satellites like Starlink; space stations such as the ISS; scientific satellites like the Hubble; Earth observation satellites from companies like Planet Labs, Umbra, and HawkEye 360; GPS; miniature CubeSats for education and research; and military/defense satellites.

Loading next visibility...
Identifier
61597, 2024-188D
Orbit
LEO
Country
Flag of UKUK
Related business
Manufacturer
One Web
Mission
Operational Commercial Communications
Bus & Motor
ARROW, Unknown motor
Mass
148 kg wet, ~140 kg dry
Launch date (UTC)
2024-10-20 (11 months ago)
Launch vehicle
FALCON 9
Launch site
Air Force Western Test Range (AFWTR)
Object type
Payload
Rocket body
Debris
Shape & HBR
Trap Box + 2 Pan, 2.5 m
Radar Cross Section
2.032 m², Large (>1 m²)

Expand to show TLE details & history
Last TLE update: 9 hours ago

TLE from 9 hours ago
0 ONEWEB-0689
1 61597U 24188D   25260.88759332 -.00000284  00000-0 -83682-3 0  9997
2 61597  87.8747  75.2998 0001968  97.6852 262.4499 13.11414319 48761
Epoch: 2025-09-17T21:18Z
TLE epoch observation values (Epoch: 2025-09-17T21:18:08.062Z)
Latitude
-0.00009°
Longitude
118.70911°
Altitude
1,220.779 km
Speed
7.244 km/s
True Right ascension
05h 01m 11s
True Declination
0° 00' 00"
Sunlit
Object was in daylight at epoch
Visualization orbit readout
Latitude
Unknown
Longitude
Unknown
Altitude
Unknown
Speed
Unknown
Apparent Right ascension
Unknown
Apparent Declination
Unknown
Sunlit
N/A
Visualization observer readout
Local Sidereal Time
23:20:50
Azimuth
Unknown
Elevation
Unknown
Doppler factor
Unknown
Orbital elements
Apogee altitude
1,216.306 km
Perigee altitude
1,213.317 km
Semi-major axis
7,592.948 km
Eccentricity
0.0002
Inclination
87.8747°
RAAN
75.2998°
Arg. of periapsis
97.6852°
True anomaly
262.42754°
Mean anomaly
262.4499°
Eccentric anomaly
262.43872°
Mean motion
3.28041 °/min
Orbital period
109.74 mins
BSTAR
-0.00083682
Loading maneuver chart data...
Computing Atmospheric mass density...
Loading historical data...
Loading historical data...
Loading historical data...
Loading historical data...
Loading historical data...
Loading historical data...
Loading historical data...

Documentation

Showing up to 5 results
|